Change the Weather History Date:

Tuesday, March 12, 2013

  Actual Average Record
Temperature  
Mean Temperature 32 °F 40 °F  
Max Temperature 40 °F 50 °F 80 °F (1990)
Min Temperature 24 °F 31 °F -3 °F (1948)
Degree Days  
Heating Degree Days 33 25  
Month to date heating degree days 401 324  
Since 1 July heating degree days 4512 4666  
Cooling Degree Days 0 0  
Month to date cooling degree days 0 0  
Year to date cooling degree days 0 0  
Moisture  
Dew Point 23 °F    
Average Humidity 74    
Maximum Humidity 88    
Minimum Humidity 59    
Precipitation  
Precipitation T in 0.07 in 2.19 in (1923)
Month to date precipitation 2.03 0.92  
Year to date precipitation 7.50 4.32  
Sea Level Pressure  
Sea Level Pressure 30.10 in    
Wind  
Wind Speed 14 mph (WNW)    
Max Wind Speed 28 mph    
Max Gust Speed 37 mph    
Visibility 9 miles    
Events Snow    
T = Trace of Precipitation, MM = Missing Value Source: NWS Daily Summary

Daily Weather History Graph

Daily Weather History Graph

Search for Another Location

Airport or City:

Trip Planner

Search our weather history database for the weather conditions in past years. The results will help you decide how hot, cold, wet, or windy it might be!

Date:

Astronomy

Mar. 12, 2013 Rise Set
Actual Time 7:20 AM CDT 7:08 PM CDT
Civil Twilight 6:53 AM CDT 7:35 PM CDT
Nautical Twilight 6:22 AM CDT 8:07 PM CDT
Astronomical Twilight 5:50 AM CDT 8:38 PM CDT
Moon 7:27 AM CDT (3/12) 8:24 PM CDT (3/12)
Length of Visible Light 12h 42m
Length of Day
11h 48m
New Moon, 1% of the Moon is Illuminated
Mar 12
New Moon
Mar 19
First Quarter
Mar 27
Full
Apr 2
Last Quarter
Apr 10
New

Hourly Weather History & Observations

Time (CDT) Temp. Windchill Dew Point Humidity Pressure Visibility Wind Dir Wind Speed Gust Speed Precip Events Conditions
12:54 AM 28.9 °F 19.8 °F 21.9 °F 75% 29.99 in 10.0 mi WNW 10.4 mph - N/A   Partly Cloudy
1:54 AM 27.0 °F 17.3 °F 21.0 °F 78% 30.01 in 10.0 mi NW 10.4 mph - N/A   Partly Cloudy
2:54 AM 26.1 °F 19.4 °F 21.0 °F 81% 30.01 in 10.0 mi West 5.8 mph - N/A   Clear
3:54 AM 26.1 °F 17.6 °F 19.9 °F 78% 30.01 in 10.0 mi West 8.1 mph - N/A   Clear
4:54 AM 26.1 °F 20.5 °F 19.0 °F 75% 30.02 in 10.0 mi West 4.6 mph - N/A   Clear
5:54 AM 24.1 °F 16.0 °F 19.0 °F 81% 30.04 in 10.0 mi WSW 6.9 mph - N/A   Clear
6:54 AM 24.1 °F 16.0 °F 19.0 °F 81% 30.04 in 10.0 mi WSW 6.9 mph - N/A   Clear
7:54 AM 25.0 °F 17.1 °F 21.0 °F 85% 30.07 in 10.0 mi SW 6.9 mph - N/A   Clear
8:54 AM 28.9 °F 19.8 °F 21.9 °F 75% 30.08 in 10.0 mi WSW 10.4 mph - N/A   Clear
9:54 AM 32.0 °F 23.6 °F 23.0 °F 69% 30.08 in 10.0 mi West 10.4 mph - N/A   Clear
10:54 AM 34.0 °F 26.6 °F 24.1 °F 67% 30.09 in 10.0 mi West 9.2 mph - N/A   Clear
11:54 AM 37.0 °F 29.3 °F 26.1 °F 65% 30.09 in 10.0 mi West 11.5 mph - N/A   Clear
12:54 PM 37.9 °F 29.6 °F 27.0 °F 65% 30.09 in 10.0 mi WSW 13.8 mph - N/A   Overcast
1:54 PM 37.9 °F 26.6 °F 26.1 °F 62% 30.09 in 10.0 mi WNW 25.3 mph 31.1 mph N/A   Overcast
2:54 PM 37.9 °F 28.2 °F 26.1 °F 62% 30.09 in 10.0 mi West 18.4 mph 27.6 mph 0.00 in   Overcast
3:54 PM 37.9 °F 28.5 °F 25.0 °F 60% 30.10 in 10.0 mi WNW 17.3 mph 29.9 mph N/A   Overcast
4:54 PM 37.9 °F 28.2 °F 24.1 °F 57% 30.11 in 10.0 mi West 18.4 mph 32.2 mph N/A   Overcast
5:54 PM 35.1 °F 24.1 °F 24.1 °F 64% 30.13 in 10.0 mi West 19.6 mph 29.9 mph N/A   Overcast
6:54 PM 34.0 °F 22.4 °F 26.1 °F 73% 30.15 in 6.0 mi WNW 20.7 mph 29.9 mph 0.00 in Snow Light Snow
7:32 PM 33.8 °F 22.5 °F 26.6 °F 75% 30.13 in 4.0 mi WNW 19.6 mph 25.3 mph 0.00 in Snow Light Snow
7:54 PM 32.0 °F 20.8 °F 25.0 °F 75% 30.16 in 10.0 mi West 17.3 mph 24.2 mph 0.00 in   Overcast
8:54 PM 30.0 °F 17.5 °F 26.1 °F 85% 30.19 in 4.0 mi NW 19.6 mph 33.4 mph 0.00 in Snow Light Snow
9:54 PM 30.0 °F 17.5 °F 21.9 °F 72% 30.20 in 10.0 mi NW 19.6 mph 27.6 mph 0.00 in   Overcast
10:10 PM 30.2 °F 18.1 °F 21.2 °F 69% 30.18 in 10.0 mi NW 18.4 mph 24.2 mph N/A   Overcast
10:54 PM 28.4 °F 15.1 °F 21.2 °F 74% 30.19 in 8.0 mi NW 20.7 mph - N/A Snow Light Snow
11:47 PM 28.4 °F 15.4 °F 21.2 °F 74% 30.20 in 9.0 mi NNW 19.6 mph 23.0 mph 0.00 in Snow Light Snow
11:54 PM 28.0 °F 14.9 °F 19.9 °F 72% 30.22 in 7.0 mi NNW 19.6 mph 27.6 mph 0.00 in Snow Light Snow